AL3A Weather Reports


Display with metric or nautical units.
time (UTC)temp
F
wind
direction
speed
MPH
gust
MPH
rain 1hr
in
rain 24hr
in
rain mn
in
humidity
%
barometer
mb
20260904050516 55 0.0 0.0 0.00 0.00 0.00 81 1026.2
20260904045536 55 0.0 0.0 0.00 0.00 0.00 80 1026.2
20260904044516 56 0.0 0.0 0.00 0.00 0.00 78 1026.3
20260904043535 57 0.0 2.0 0.00 0.00 0.00 77 1026.4
20260904042515 58 0.0 1.0 0.00 0.00 0.00 74 1026.9
20260904041515 58 0.0 2.0 0.00 0.00 0.00 75 1026.8
20260904040515 59 0.0 1.0 0.00 0.00 0.00 74 1026.8
20260904035556 60 0.0 0.0 0.00 0.00 0.00 72 1027.2
20260904034515 59 0.0 3.0 0.00 0.00 0.00 72 1026.8
20260904033515 60 0.0 0.0 0.00 0.00 0.00 72 1026.2
20260904032515 61 0.0 0.0 0.00 0.00 0.00 69 1026.1
20260904031538 62 0.0 0.0 0.00 0.00 0.00 68 1026.4
20260904030518 63 0.0 0.0 0.00 0.00 0.00 67 1025.0
20260904025517 64 0.0 1.0 0.00 0.00 0.00 65 1024.9
20260904024517 64 0.0 1.0 0.00 0.00 0.00 65 1024.8
20260904023517 64 0.0 0.0 0.00 0.00 0.00 65 1023.8
20260904022517 64 0.0 0.0 0.00 0.00 0.00 64 1023.7
20260904021517 64 0.0 1.0 0.00 0.00 0.00 64 1023.7
20260904020537 65 0.0 3.0 0.00 0.00 0.00 63 1022.7
20260904015537 66 0.0 1.0 0.00 0.00 0.00 61 1022.7
20260904014517 66 0.0 2.0 0.00 0.00 0.00 60 1023.0
20260904013538 67 248 2.0 8.0 0.00 0.00 0.00 59 1022.5
20260904012517 67 225 1.0 5.0 0.00 0.00 0.00 59 1022.5
20260904011517 68 225 1.0 7.0 0.00 0.00 0.00 58 1022.5
20260904010517 69 225 1.0 5.0 0.00 0.00 0.00 57 1023.6
20260904005542 68 248 2.0 8.0 0.00 0.00 0.00 57 1023.6
20260904004517 69 248 2.0 9.0 0.00 0.00 0.00 56 1023.6
20260904003518 70 225 1.0 7.0 0.00 0.00 0.00 56 1024.1
20260904002517 70 225 2.0 11.0 0.00 0.00 0.00 56 1024.2
20260904001517 71 248 3.0 9.0 0.00 0.00 0.00 53 1024.1
20260904000517 71 225 2.0 8.0 0.00 0.00 0.00 53 1024.5
20260903235537 71 225 1.0 6.0 0.00 0.00 0.00 52 1024.4
20260903234517 73 203 2.0 12.0 0.00 0.00 0.00 49 1024.5
20260903233517 72 158 2.0 9.0 0.00 0.00 0.00 51 1024.5
20260903232517 72 248 3.0 10.0 0.00 0.00 0.00 50 1024.6
20260903231517 71 248 1.0 9.0 0.00 0.00 0.00 50 1024.1
20260903230517 72 248 2.0 10.0 0.00 0.00 0.00 50 1024.7
20260903225517 72 248 2.0 8.0 0.00 0.00 0.00 49 1024.7
20260903224537 73 248 4.0 13.0 0.00 0.00 0.00 47 1024.7
20260903223517 72 225 1.0 8.0 0.00 0.00 0.00 49 1025.0
20260903222517 72 225 2.0 10.0 0.00 0.00 0.00 47 1025.1
20260903221516 72 270 6.0 13.0 0.00 0.00 0.00 48 1025.3
20260903220516 72 270 2.0 10.0 0.00 0.00 0.00 48 1025.3
20260903215516 72 225 4.0 16.0 0.00 0.00 0.00 46 1025.3
20260903214517 72 225 5.0 9.0 0.00 0.00 0.00 47 1025.3
20260903213516 72 225 2.0 10.0 0.00 0.00 0.00 47 1026.4
20260903212536 71 225 3.0 13.0 0.00 0.00 0.00 48 1026.1
20260903211516 73 225 3.0 12.0 0.00 0.00 0.00 46 1026.5
20260903210516 73 180 6.0 19.0 0.00 0.00 0.00 44 1026.8
20260903205516 74 248 5.0 12.0 0.00 0.00 0.00 47 1027.1
20260903204537 73 248 5.0 14.0 0.00 0.00 0.00 46 1027.1
20260903203517 73 270 4.0 11.0 0.00 0.00 0.00 45 1026.1
20260903202517 74 248 5.0 15.0 0.00 0.00 0.00 45 1026.2
20260903201517 73 270 4.0 15.0 0.00 0.00 0.00 47 1025.7
20260903200517 73 225 5.0 13.0 0.00 0.00 0.00 45 1026.7
20260903195536 72 225 5.0 16.0 0.00 0.00 0.00 44 1026.7
20260903194516 73 225 5.0 19.0 0.00 0.00 0.00 46 1026.9
20260903193517 72 248 5.0 14.0 0.00 0.00 0.00 47 1027.0
20260903192516 72 248 4.0 12.0 0.00 0.00 0.00 49 1027.1
20260903191516 72 225 4.0 20.0 0.00 0.00 0.00 49 1027.2
20260903190556 71 248 3.0 9.0 0.00 0.00 0.00 52 1027.4
20260903185516 70 248 7.0 17.0 0.00 0.00 0.00 49 1026.9
20260903184516 70 225 6.0 21.0 0.00 0.00 0.00 52 1027.1
20260903183516 69 225 7.0 20.0 0.00 0.00 0.00 53 1027.9
20260903182516 69 270 6.0 17.0 0.00 0.00 0.00 52 1027.8
20260903181516 68 270 7.0 16.0 0.00 0.00 0.00 54 1027.5
20260903180516 68 248 7.0 17.0 0.00 0.00 0.00 56 1027.8
20260903175516 69 225 3.0 12.0 0.00 0.00 0.00 54 1028.0
20260903174516 68 293 4.0 16.0 0.00 0.00 0.00 57 1027.8
20260903173516 67 248 5.0 14.0 0.00 0.00 0.00 57 1028.2
20260903172516 67 270 6.0 14.0 0.00 0.00 0.00 57 1028.1
20260903171536 67 158 2.0 9.0 0.00 0.00 0.00 58 1028.2
20260903170516 67 248 3.0 9.0 0.00 0.00 0.00 60 1028.3
20260903165516 66 270 6.0 13.0 0.00 0.00 0.00 61 1028.3
20260903164516 65 225 3.0 12.0 0.00 0.00 0.00 62 1027.7
20260903163516 64 270 2.0 6.0 0.00 0.00 0.00 64 1028.2
20260903162556 64 270 3.0 10.0 0.00 0.00 0.00 63 1028.3
20260903161516 64 270 4.0 10.0 0.00 0.00 0.00 60 1028.2
20260903160536 64 248 5.0 13.0 0.00 0.00 0.00 62 1028.5
20260903155516 64 248 6.0 16.0 0.00 0.00 0.00 60 1028.6
20260903154536 65 0.0 3.0 0.00 0.00 0.00 58 1028.5
20260903153516 63 0.0 1.0 0.00 0.00 0.00 60 1028.6
20260903152516 62 0.0 1.0 0.00 0.00 0.00 61 1028.6
20260903151516 61 0.0 0.0 0.00 0.00 0.00 65 1028.2
20260903150536 60 0.0 1.0 0.00 0.00 0.00 64 1028.7
20260903145516 58 0.0 0.0 0.00 0.00 0.00 69 1028.3
20260903144536 55 0.0 1.0 0.00 0.00 0.00 73 1027.8
20260903143516 53 0.0 2.0 0.00 0.00 0.00 79 1027.9
20260903142516 51 0.0 1.0 0.00 0.00 0.00 82 1027.5
20260903141516 49 0.0 0.0 0.00 0.00 0.00 85 1026.8
20260903140515 47 0.0 0.0 0.00 0.00 0.00 85 1026.6
20260903135516 45 0.0 0.0 0.00 0.00 0.00 85 1025.9
20260903134516 44 0.0 1.0 0.00 0.00 0.00 85 1025.9
20260903133515 43 0.0 0.0 0.00 0.00 0.00 84 1025.7
20260903132516 43 0.0 0.0 0.00 0.00 0.00 86 1025.6
20260903131515 42 0.0 1.0 0.00 0.00 0.00 87 1025.5
20260903130535 42 0.0 0.0 0.00 0.00 0.00 86 1025.4
20260903125516 43 0.0 1.0 0.00 0.00 0.00 85 1025.5
20260903124515 43 0.0 0.0 0.00 0.00 0.00 83 1025.4
20260903123515 44 0.0 0.0 0.00 0.00 0.00 82 1025.8
20260903122515 44 0.0 1.0 0.00 0.00 0.00 85 1025.8
20260903121515 44 0.0 1.0 0.00 0.00 0.00 83 1025.7
20260903120516 44 0.0 4.0 0.00 0.00 0.00 82 1026.1
20260903115515 44 0.0 3.0 0.00 0.00 0.00 84 1026.0
20260903114516 44 0.0 2.0 0.00 0.00 0.00 83 1025.9
20260903113515 45 0.0 1.0 0.00 0.00 0.00 81 1025.9
20260903112516 45 0.0 2.0 0.00 0.00 0.00 81 1025.8
20260903111515 44 0.0 1.0 0.00 0.00 0.00 83 1025.8
20260903110515 45 0.0 1.0 0.00 0.00 0.00 80 1026.2
20260903105515 47 0.0 3.0 0.00 0.01 0.00 77 1026.9
20260903104515 46 0.0 2.0 0.00 0.01 0.00 79 1026.8
20260903103515 45 0.0 0.0 0.00 0.01 0.00 82 1025.8
20260903102515 45 0.0 0.0 0.00 0.01 0.00 82 1025.9
20260903101517 44 0.0 1.0 0.00 0.01 0.00 84 1025.9
20260903100517 44 0.0 1.0 0.00 0.01 0.00 83 1025.4
20260903095517 44 0.0 0.0 0.00 0.01 0.00 84 1025.5
20260903094537 44 0.0 0.0 0.00 0.01 0.00 83 1025.5
20260903093537 45 0.0 0.0 0.00 0.01 0.00 81 1025.9
20260903092517 47 0.0 1.0 0.00 0.01 0.00 78 1026.2
20260903091517 48 0.0 1.0 0.00 0.01 0.00 78 1026.3
20260903090517 48 0.0 0.0 0.00 0.01 0.00 77 1026.6
20260903085517 48 0.0 1.0 0.00 0.01 0.00 78 1026.6
20260903084517 50 0.0 0.0 0.00 0.01 0.00 76 1027.2
20260903083517 50 0.0 2.0 0.00 0.01 0.00 77 1026.8
20260903082517 48 0.0 1.0 0.00 0.01 0.00 80 1026.3
20260903081537 45 0.0 1.0 0.00 0.01 0.00 87 1025.9
20260903080517 45 0.0 0.0 0.00 0.01 0.00 86 1025.8
20260903075517 46 0.0 0.0 0.00 0.01 0.00 83 1025.9
20260903074517 48 0.0 0.0 0.00 0.01 0.00 80 1026.5
20260903073517 48 0.0 0.0 0.00 0.01 0.00 82 1027.0
20260903072517 47 0.0 0.0 0.00 0.01 0.00 83 1026.5
20260903071517 48 0.0 0.0 0.00 0.01 0.00 82 1026.9
20260903070517 48 0.0 0.0 0.00 0.01 0.00 81 1026.1
20260903065515 49 0.0 0.0 0.00 0.01 0.01 79 1026.6
20260903064515 51 0.0 0.0 0.00 0.01 0.01 78 1026.7
20260903063516 49 0.0 0.0 0.00 0.01 0.01 80 1026.7
20260903062515 49 0.0 0.0 0.00 0.01 0.01 79 1026.5
20260903061516 51 0.0 0.0 0.00 0.01 0.01 77 1027.1
20260903060515 51 0.0 1.0 0.00 0.01 0.01 76 1026.7
20260903055515 51 0.0 0.0 0.00 0.01 0.01 78 1026.7
20260903054516 51 248 1.0 3.0 0.00 0.01 0.01 78 1026.7
20260903053516 52 0.0 0.0 0.00 0.01 0.01 76 1026.7
20260903052516 51 0.0 1.0 0.00 0.01 0.01 77 1027.0
20260903051515 53 0.0 0.0 0.00 0.01 0.01 74 1027.5